| time (UTC) | temp F | wind direction | speed MPH | gust MPH | rain 1hr in | rain 24hr in | rain mn in | humidity % | barometer mb |
| 20260502152042 | 63 | 1.0 | 3.0 | 0.04 | 0.00 | 0.25 | 99 | 1016.7 | |
| 20260502151536 | 62 | 0.0 | 0.0 | 0.02 | 0.00 | 0.22 | 99 | 1017.0 | |
| 20260502151030 | 63 | 1.0 | 3.0 | 0.02 | 0.00 | 0.22 | 99 | 1017.1 | |
| 20260502150524 | 63 | 0.0 | 0.0 | 0.02 | 0.00 | 0.22 | 99 | 1016.9 | |
| 20260502130259 | 71 | 2.0 | 6.0 | 0.00 | 0.00 | 0.04 | 99 | 1018.1 | |
| 20260502123730 | 75 | 3.0 | 9.0 | 0.00 | 0.00 | 0.04 | 99 | 1017.9 | |
| 20260502123224 | 75 | 3.0 | 9.0 | 0.00 | 0.00 | 0.04 | 99 | 1017.9 | |
| 20260502122726 | 74 | 3.0 | 10.0 | 0.00 | 0.00 | 0.04 | 99 | 1017.9 | |
| 20260502122212 | 73 | 3.0 | 9.0 | 0.00 | 0.00 | 0.04 | 99 | 1017.9 | |
| 20260502121706 | 72 | 3.0 | 8.0 | 0.00 | 0.00 | 0.04 | 99 | 1017.8 | |
| 20260502121159 | 73 | 4.0 | 11.0 | 0.00 | 0.00 | 0.04 | 99 | 1017.7 | |
| 20260502120654 | 73 | 3.0 | 10.0 | 0.00 | 0.00 | 0.04 | 99 | 1017.9 | |
| 20260502120148 | 72 | 3.0 | 10.0 | 0.00 | 0.00 | 0.04 | 99 | 1017.9 | |
| 20260502115649 | 73 | 3.0 | 8.0 | 0.00 | 0.00 | 0.04 | 99 | 1017.9 | |
| 20260502115134 | 72 | 2.0 | 7.0 | 0.00 | 0.00 | 0.04 | 99 | 1017.9 | |
| 20260502114629 | 73 | 2.0 | 7.0 | 0.00 | 0.00 | 0.04 | 99 | 1018.0 | |
| 20260502114123 | 73 | 1.0 | 4.0 | 0.00 | 0.00 | 0.04 | 99 | 1018.0 | |
| 20260502113617 | 69 | 2.0 | 6.0 | 0.00 | 0.00 | 0.04 | 99 | 1018.1 | |
| 20260502113111 | 68 | 1.0 | 2.0 | 0.00 | 0.00 | 0.04 | 99 | 1018.1 | |
| 20260502112614 | 68 | 2.0 | 6.0 | 0.00 | 0.00 | 0.04 | 99 | 1018.3 | |
| 20260502112059 | 68 | 2.0 | 7.0 | 0.00 | 0.00 | 0.04 | 99 | 1018.3 | |
| 20260502111553 | 68 | 2.0 | 5.0 | 0.00 | 0.00 | 0.04 | 99 | 1018.5 | |
| 20260502111047 | 69 | 2.0 | 6.0 | 0.00 | 0.00 | 0.04 | 99 | 1018.5 | |
| 20260502110541 | 69 | 2.0 | 5.0 | 0.00 | 0.00 | 0.04 | 99 | 1018.5 | |
| 20260502110035 | 69 | 1.0 | 4.0 | 0.00 | 0.00 | 0.04 | 99 | 1018.6 | |
| 20260502105539 | 69 | 1.0 | 4.0 | 0.00 | 0.00 | 0.04 | 99 | 1018.4 | |
| 20260502105024 | 70 | 2.0 | 6.0 | 0.00 | 0.00 | 0.04 | 99 | 1018.4 | |
| 20260502104518 | 70 | 2.0 | 5.0 | 0.00 | 0.00 | 0.04 | 99 | 1018.4 | |
| 20260502103506 | 68 | 0.0 | 1.0 | 0.00 | 0.00 | 0.04 | 99 | 1018.3 | |
| 20260502103000 | 66 | 0.0 | 1.0 | 0.00 | 0.00 | 0.04 | 99 | 1018.2 | |
| 20260502102502 | 66 | 1.0 | 3.0 | 0.00 | 0.00 | 0.04 | 99 | 1018.1 | |
| 20260502101948 | 67 | 2.0 | 5.0 | 0.00 | 0.00 | 0.04 | 99 | 1018.0 | |
| 20260502101442 | 66 | 1.0 | 3.0 | 0.00 | 0.00 | 0.04 | 99 | 1018.0 | |
| 20260502100936 | 64 | 0.0 | 0.0 | 0.00 | 0.00 | 0.04 | 99 | 1018.0 | |
| 20260502100430 | 64 | 0.0 | 0.0 | 0.00 | 0.00 | 0.04 | 99 | 1018.1 | |
| 20260502091331 | 61 | 1.0 | 3.0 | 0.00 | 0.00 | 0.02 | 99 | 1018.0 | |
| 20260502090825 | 61 | 2.0 | 7.0 | 0.00 | 0.00 | 0.02 | 99 | 1018.0 | |
| 20260502090320 | 62 | 1.0 | 4.0 | 0.00 | 0.00 | 0.02 | 99 | 1018.0 | |
| 20260502071106 | 60 | 1.0 | 3.0 | 0.00 | 0.00 | 0.00 | 99 | 1018.0 | |
| 20260502070600 | 60 | 0.0 | 1.0 | 0.00 | 0.00 | 0.00 | 99 | 1018.1 | |
| 20260502070054 | 59 | 1.0 | 2.0 | 0.00 | 0.00 | 0.00 | 99 | 1018.1 | |
| 20260502065547 | 58 | 0.0 | 1.0 | 0.00 | 0.00 | 0.00 | 99 | 1018.0 | |
| 20260502065050 | 57 | 1.0 | 2.0 | 0.00 | 0.00 | 0.00 | 99 | 1018.1 | |
| 20260502064535 | 58 | 1.0 | 2.0 | 0.00 | 0.00 | 0.00 | 99 | 1018.1 | |
| 20260502064029 | 58 | 1.0 | 3.0 | 0.00 | 0.00 | 0.00 | 99 | 1018.1 | |
| 20260502063524 | 58 | 0.0 | 0.0 | 0.00 | 0.00 | 0.00 | 99 | 1018.2 | |
| 20260502063018 | 58 | 0.0 | 0.0 | 0.00 | 0.00 | 0.00 | 99 | 1018.2 | |
| 20260502062512 | 58 | 0.0 | 0.0 | 0.00 | 0.00 | 0.00 | 99 | 1018.2 | |
| 20260502062014 | 58 | 0.0 | 0.0 | 0.00 | 0.00 | 0.00 | 99 | 1018.2 | |
| 20260502061459 | 58 | 1.0 | 2.0 | 0.00 | 0.00 | 0.00 | 99 | 1018.2 | |
| 20260502060954 | 60 | 1.0 | 4.0 | 0.00 | 0.00 | 0.00 | 99 | 1018.2 | |
| 20260502060448 | 63 | 2.0 | 5.0 | 0.00 | 0.00 | 0.00 | 99 | 1018.3 | |
| 20260502055942 | 60 | 1.0 | 2.0 | 0.00 | 0.00 | 0.00 | 99 | 1018.3 | |
| 20260502055435 | 57 | 1.0 | 3.0 | 0.00 | 0.00 | 0.00 | 99 | 1018.4 | |
| 20260502054937 | 56 | 1.0 | 4.0 | 0.00 | 0.00 | 0.00 | 99 | 1018.3 | |
| 20260502054422 | 56 | 2.0 | 5.0 | 0.00 | 0.00 | 0.00 | 99 | 1018.2 | |
| 20260502053916 | 56 | 1.0 | 2.0 | 0.00 | 0.00 | 0.00 | 99 | 1018.2 | |
| 20260502053411 | 56 | 0.0 | 0.0 | 0.00 | 0.00 | 0.00 | 99 | 1018.3 | |
| 20260502052905 | 56 | 0.0 | 1.0 | 0.00 | 0.00 | 0.00 | 99 | 1018.3 | |
| 20260502052359 | 56 | 0.0 | 0.0 | 0.00 | 0.00 | 0.00 | 99 | 1018.3 | |
| 20260502051902 | 56 | 0.0 | 0.0 | 0.00 | 0.00 | 0.00 | 99 | 1018.3 | |
| 20260502051347 | 56 | 0.0 | 1.0 | 0.00 | 0.00 | 0.00 | 99 | 1018.3 | |
| 20260502050841 | 56 | 0.0 | 1.0 | 0.00 | 0.00 | 0.00 | 99 | 1018.2 | |
| 20260502050335 | 56 | 0.0 | 0.0 | 0.00 | 0.00 | 0.00 | 99 | 1018.3 | |
| 20260502045828 | 56 | 0.0 | 0.0 | 0.00 | 0.00 | 0.00 | 99 | 1018.2 | |
| 20260502045322 | 56 | 0.0 | 1.0 | 0.00 | 0.00 | 0.00 | 99 | 1018.2 | |
| 20260502044824 | 56 | 0.0 | 0.0 | 0.00 | 0.00 | 0.00 | 99 | 1018.1 | |
| 20260502044310 | 56 | 0.0 | 1.0 | 0.00 | 0.00 | 0.00 | 99 | 1018.2 | |
| 20260502043804 | 56 | 0.0 | 0.0 | 0.00 | 0.00 | 0.00 | 99 | 1018.1 | |
| 20260502043258 | 56 | 0.0 | 0.0 | 0.00 | 0.00 | 0.00 | 99 | 1018.1 | |
| 20260502042756 | 56 | 1.0 | 2.0 | 0.00 | 0.00 | 0.00 | 99 | 1018.0 | |
| 20260502042246 | 56 | 1.0 | 3.0 | 0.00 | 0.00 | 0.00 | 99 | 1018.0 | |
| 20260502041748 | 56 | 1.0 | 3.0 | 0.00 | 0.00 | 0.00 | 99 | 1018.0 | |
| 20260502041233 | 56 | 0.0 | 1.0 | 0.00 | 0.00 | 0.00 | 99 | 1018.0 | |
| 20260502040727 | 56 | 0.0 | 0.0 | 0.00 | 0.00 | 0.00 | 99 | 1018.1 | |
| 20260502040221 | 56 | 0.0 | 0.0 | 0.00 | 0.00 | 0.00 | 99 | 1018.1 | |
| 20260502035714 | 56 | 1.0 | 2.0 | 0.00 | 0.00 | 0.00 | 99 | 1018.1 | |
| 20260502035209 | 57 | 1.0 | 4.0 | 0.00 | 0.00 | 0.00 | 99 | 1018.0 | |
| 20260502034711 | 57 | 0.0 | 1.0 | 0.00 | 0.00 | 0.00 | 99 | 1018.1 | |
| 20260502034156 | 57 | 1.0 | 3.0 | 0.00 | 0.00 | 0.00 | 99 | 1018.2 | |
| 20260502033650 | 57 | 1.0 | 4.0 | 0.00 | 0.00 | 0.00 | 99 | 1018.0 | |
| 20260502033144 | 57 | 2.0 | 6.0 | 0.00 | 0.00 | 0.00 | 99 | 1018.0 | |
| 20260502032638 | 57 | 1.0 | 3.0 | 0.00 | 0.00 | 0.00 | 99 | 1018.1 | |
| 20260502032132 | 57 | 2.0 | 5.0 | 0.00 | 0.00 | 0.00 | 99 | 1018.1 | |
| 20260502031635 | 57 | 2.0 | 7.0 | 0.00 | 0.00 | 0.00 | 99 | 1018.1 | |
| 20260502031120 | 57 | 2.0 | 6.0 | 0.00 | 0.00 | 0.00 | 99 | 1018.2 | |
| 20260502030614 | 57 | 1.0 | 4.0 | 0.00 | 0.00 | 0.00 | 99 | 1018.3 | |
| 20260502030108 | 57 | 1.0 | 4.0 | 0.00 | 0.00 | 0.00 | 99 | 1018.3 | |
| 20260502025601 | 57 | 0.0 | 1.0 | 0.00 | 0.00 | 0.00 | 99 | 1018.3 | |
| 20260502025055 | 57 | 1.0 | 4.0 | 0.00 | 0.00 | 0.00 | 99 | 1018.2 | |
| 20260502024557 | 57 | 1.0 | 2.0 | 0.00 | 0.00 | 0.00 | 99 | 1018.2 | |
| 20260502024042 | 57 | 1.0 | 4.0 | 0.00 | 0.00 | 0.00 | 99 | 1018.2 | |
| 20260502023536 | 57 | 1.0 | 2.0 | 0.00 | 0.00 | 0.00 | 99 | 1018.2 | |
| 20260502023030 | 57 | 1.0 | 4.0 | 0.00 | 0.00 | 0.00 | 99 | 1018.2 | |
| 20260502022524 | 57 | 1.0 | 4.0 | 0.00 | 0.00 | 0.00 | 99 | 1018.3 | |
| 20260502022018 | 57 | 2.0 | 6.0 | 0.00 | 0.00 | 0.00 | 99 | 1018.3 | |
| 20260502021521 | 57 | 2.0 | 5.0 | 0.00 | 0.00 | 0.00 | 99 | 1018.3 | |
| 20260502021006 | 57 | 1.0 | 2.0 | 0.00 | 0.00 | 0.00 | 99 | 1018.4 | |
| 20260502020500 | 57 | 0.0 | 1.0 | 0.00 | 0.00 | 0.00 | 99 | 1018.5 | |
| 20260502015954 | 57 | 1.0 | 3.0 | 0.00 | 0.00 | 0.00 | 99 | 1018.5 | |
| 20260502015448 | 57 | 1.0 | 4.0 | 0.00 | 0.00 | 0.00 | 99 | 1018.5 | |
| 20260502014942 | 57 | 2.0 | 5.0 | 0.00 | 0.00 | 0.00 | 99 | 1018.5 | |
| 20260502014444 | 57 | 0.0 | 1.0 | 0.00 | 0.00 | 0.00 | 99 | 1018.5 | |
| 20260502013929 | 57 | 1.0 | 2.0 | 0.00 | 0.00 | 0.00 | 99 | 1018.6 | |
| 20260502013424 | 58 | 2.0 | 7.0 | 0.00 | 0.00 | 0.00 | 99 | 1018.5 | |
| 20260502012918 | 58 | 2.0 | 6.0 | 0.00 | 0.00 | 0.00 | 99 | 1018.5 | |
| 20260502011905 | 58 | 2.0 | 7.0 | 0.00 | 0.00 | 0.00 | 99 | 1018.6 | |
| 20260502011407 | 58 | 3.0 | 8.0 | 0.00 | 0.00 | 0.00 | 99 | 1018.6 | |
| 20260502010852 | 58 | 3.0 | 9.0 | 0.00 | 0.00 | 0.00 | 99 | 1018.6 | |
| 20260502010346 | 58 | 3.0 | 8.0 | 0.00 | 0.00 | 0.00 | 99 | 1018.6 | |
| 20260502005840 | 58 | 3.0 | 9.0 | 0.00 | 0.00 | 0.00 | 99 | 1018.7 | |
| 20260502005334 | 59 | 3.0 | 9.0 | 0.00 | 0.00 | 0.00 | 99 | 1018.8 | |
| 20260502004828 | 59 | 2.0 | 7.0 | 0.00 | 0.00 | 0.00 | 99 | 1018.9 | |
| 20260502004331 | 59 | 1.0 | 4.0 | 0.00 | 0.00 | 0.00 | 99 | 1018.9 | |
| 20260502003816 | 59 | 0.0 | 1.0 | 0.00 | 0.00 | 0.00 | 99 | 1019.0 | |
| 20260502003310 | 59 | 0.0 | 1.0 | 0.00 | 0.00 | 0.00 | 99 | 1019.1 | |
| 20260502002804 | 59 | 1.0 | 3.0 | 0.00 | 0.00 | 0.00 | 99 | 1019.1 | |
| 20260502002259 | 59 | 2.0 | 6.0 | 0.00 | 0.00 | 0.00 | 99 | 1019.1 | |
| 20260502001753 | 60 | 2.0 | 6.0 | 0.00 | 0.00 | 0.00 | 99 | 1019.1 | |
| 20260502001255 | 60 | 2.0 | 5.0 | 0.00 | 0.00 | 0.00 | 99 | 1019.1 | |
| 20260502000741 | 60 | 1.0 | 2.0 | 0.00 | 0.00 | 0.00 | 99 | 1019.2 | |
| 20260502000235 | 60 | 1.0 | 4.0 | 0.00 | 0.00 | 0.00 | 99 | 1019.2 | |
| 20260501235728 | 60 | 2.0 | 7.0 | 0.00 | 0.00 | 0.00 | 99 | 1019.2 | |
| 20260501235222 | 60 | 2.0 | 7.0 | 0.00 | 0.00 | 0.00 | 99 | 1019.2 | |
| 20260501234716 | 60 | 3.0 | 8.0 | 0.00 | 0.00 | 0.00 | 99 | 1019.3 | |
| 20260501234218 | 61 | 3.0 | 8.0 | 0.00 | 0.00 | 0.00 | 99 | 1019.3 | |
| 20260501233703 | 61 | 3.0 | 8.0 | 0.00 | 0.00 | 0.00 | 99 | 1019.4 | |
| 20260501233158 | 61 | 3.0 | 8.0 | 0.00 | 0.00 | 0.00 | 99 | 1019.5 | |
| 20260501232652 | 61 | 3.0 | 8.0 | 0.00 | 0.00 | 0.00 | 99 | 1019.5 | |
| 20260501232146 | 62 | 2.0 | 7.0 | 0.00 | 0.00 | 0.00 | 99 | 1019.5 | |
| 20260501231640 | 62 | 2.0 | 7.0 | 0.00 | 0.00 | 0.00 | 99 | 1019.7 | |
| 20260501231142 | 62 | 3.0 | 8.0 | 0.00 | 0.00 | 0.00 | 99 | 1019.7 | |
| 20260501230627 | 62 | 2.0 | 6.0 | 0.00 | 0.00 | 0.00 | 99 | 1019.8 | |
| 20260501230121 | 62 | 2.0 | 7.0 | 0.00 | 0.00 | 0.00 | 99 | 1019.8 | |
| 20260501225615 | 63 | 3.0 | 8.0 | 0.00 | 0.00 | 0.00 | 99 | 1019.9 | |
| 20260501225109 | 63 | 2.0 | 7.0 | 0.00 | 0.00 | 0.00 | 99 | 1019.9 | |
| 20260501224603 | 63 | 2.0 | 5.0 | 0.00 | 0.00 | 0.00 | 99 | 1020.0 | |
| 20260501224105 | 63 | 2.0 | 6.0 | 0.00 | 0.00 | 0.00 | 99 | 1019.9 | |
| 20260501223550 | 64 | 2.0 | 5.0 | 0.00 | 0.00 | 0.00 | 99 | 1019.9 | |
| 20260501223044 | 64 | 2.0 | 7.0 | 0.00 | 0.00 | 0.00 | 99 | 1019.9 | |
| 20260501222538 | 64 | 3.0 | 8.0 | 0.00 | 0.00 | 0.00 | 99 | 1019.9 | |
| 20260501222034 | 64 | 3.0 | 8.0 | 0.00 | 0.00 | 0.00 | 99 | 1019.9 | |
| 20260501221526 | 64 | 2.0 | 6.0 | 0.00 | 0.00 | 0.00 | 99 | 1020.0 | |
| 20260501221029 | 64 | 2.0 | 7.0 | 0.00 | 0.00 | 0.00 | 99 | 1019.9 | |
| 20260501220514 | 65 | 2.0 | 5.0 | 0.00 | 0.00 | 0.00 | 99 | 1019.9 | |
| 20260501220008 | 65 | 2.0 | 7.0 | 0.00 | 0.00 | 0.00 | 99 | 1019.9 | |
| 20260501215501 | 65 | 2.0 | 6.0 | 0.00 | 0.00 | 0.00 | 99 | 1019.9 | |
| 20260501214955 | 65 | 2.0 | 7.0 | 0.00 | 0.00 | 0.00 | 99 | 1019.9 | |
| 20260501214449 | 65 | 3.0 | 9.0 | 0.00 | 0.00 | 0.00 | 99 | 1019.8 | |
| 20260501213951 | 65 | 3.0 | 9.0 | 0.00 | 0.00 | 0.00 | 99 | 1019.9 | |
| 20260501213437 | 65 | 3.0 | 8.0 | 0.00 | 0.00 | 0.00 | 99 | 1019.8 | |
| 20260501212931 | 65 | 2.0 | 7.0 | 0.00 | 0.00 | 0.00 | 99 | 1019.8 | |
| 20260501212425 | 65 | 2.0 | 7.0 | 0.00 | 0.00 | 0.00 | 99 | 1019.8 | |
| 20260501211919 | 65 | 2.0 | 7.0 | 0.00 | 0.00 | 0.00 | 99 | 1019.8 | |
| 20260501211413 | 65 | 0.0 | 0.0 | 0.00 | 0.00 | 0.00 | 99 | 1019.8 | |
| 20260501210916 | 66 | 0.0 | 0.0 | 0.00 | 0.00 | 0.00 | 99 | 1019.8 | |
| 20260501210401 | 66 | 0.0 | 0.0 | 0.00 | 0.00 | 0.00 | 99 | 1019.9 | |
| 20260501205855 | 66 | 0.0 | 0.0 | 0.00 | 0.00 | 0.00 | 99 | 1019.9 | |
| 20260501205348 | 67 | 0.0 | 0.0 | 0.00 | 0.00 | 0.00 | 99 | 1019.9 | |
| 20260501204842 | 67 | 0.0 | 0.0 | 0.00 | 0.00 | 0.00 | 99 | 1020.0 | |
| 20260501204336 | 67 | 1.0 | 3.0 | 0.00 | 0.00 | 0.00 | 99 | 1020.0 | |
| 20260501203839 | 67 | 1.0 | 3.0 | 0.00 | 0.00 | 0.00 | 99 | 1019.9 | |
| 20260501203323 | 67 | 2.0 | 7.0 | 0.00 | 0.00 | 0.00 | 99 | 1019.9 | |
| 20260501202818 | 66 | 2.0 | 5.0 | 0.00 | 0.00 | 0.00 | 99 | 1019.8 | |
| 20260501202312 | 66 | 1.0 | 2.0 | 0.00 | 0.00 | 0.00 | 99 | 1019.7 | |
| 20260501201806 | 66 | 2.0 | 5.0 | 0.00 | 0.00 | 0.00 | 99 | 1019.7 | |
| 20260501201300 | 66 | 2.0 | 5.0 | 0.00 | 0.00 | 0.00 | 99 | 1019.6 | |
| 20260501200803 | 66 | 0.0 | 0.0 | 0.00 | 0.00 | 0.00 | 99 | 1019.5 | |
| 20260501200248 | 67 | 0.0 | 0.0 | 0.00 | 0.00 | 0.00 | 99 | 1019.5 | |
| 20260501195741 | 67 | 0.0 | 0.0 | 0.00 | 0.00 | 0.00 | 99 | 1019.6 | |
| 20260501195235 | 67 | 0.0 | 0.0 | 0.00 | 0.00 | 0.00 | 99 | 1019.6 | |
| 20260501194729 | 67 | 0.0 | 0.0 | 0.00 | 0.00 | 0.00 | 99 | 1019.6 | |
| 20260501194223 | 67 | 0.0 | 0.0 | 0.00 | 0.00 | 0.00 | 99 | 1019.5 | |
| 20260501193725 | 68 | 0.0 | 0.0 | 0.00 | 0.00 | 0.00 | 99 | 1019.5 | |
| 20260501193210 | 68 | 0.0 | 0.0 | 0.00 | 0.00 | 0.00 | 99 | 1019.6 | |
| 20260501192704 | 68 | 0.0 | 1.0 | 0.00 | 0.00 | 0.00 | 99 | 1019.6 | |
| 20260501192158 | 68 | 2.0 | 5.0 | 0.00 | 0.00 | 0.00 | 99 | 1019.6 | |
| 20260501191652 | 68 | 0.0 | 1.0 | 0.00 | 0.00 | 0.00 | 99 | 1019.5 | |
| 20260501191146 | 68 | 0.0 | 0.0 | 0.00 | 0.00 | 0.00 | 99 | 1019.6 | |
| 20260501190649 | 69 | 1.0 | 3.0 | 0.00 | 0.00 | 0.00 | 99 | 1019.5 | |
| 20260501190134 | 69 | 0.0 | 1.0 | 0.00 | 0.00 | 0.00 | 99 | 1019.4 | |
| 20260501185628 | 69 | 0.0 | 1.0 | 0.00 | 0.00 | 0.00 | 99 | 1019.4 | |
| 20260501185122 | 69 | 0.0 | 0.0 | 0.00 | 0.00 | 0.00 | 99 | 1019.4 | |
| 20260501184616 | 70 | 0.0 | 0.0 | 0.00 | 0.00 | 0.00 | 99 | 1019.3 | |
| 20260501184109 | 70 | 0.0 | 0.0 | 0.00 | 0.00 | 0.00 | 99 | 1019.3 | |
| 20260501183612 | 70 | 0.0 | 0.0 | 0.00 | 0.00 | 0.00 | 99 | 1019.3 | |
| 20260501183057 | 70 | 0.0 | 1.0 | 0.00 | 0.00 | 0.00 | 99 | 1019.4 | |
| 20260501182551 | 71 | 2.0 | 5.0 | 0.00 | 0.00 | 0.00 | 99 | 1019.5 | |
| 20260501182045 | 71 | 2.0 | 6.0 | 0.00 | 0.00 | 0.00 | 99 | 1019.4 | |
| 20260501181539 | 71 | 2.0 | 7.0 | 0.00 | 0.00 | 0.00 | 99 | 1019.5 | |
| 20260501181033 | 71 | 2.0 | 7.0 | 0.00 | 0.00 | 0.00 | 99 | 1019.4 | |
| 20260501180535 | 71 | 2.0 | 7.0 | 0.00 | 0.00 | 0.00 | 99 | 1019.5 | |
| 20260501180020 | 72 | 3.0 | 9.0 | 0.00 | 0.00 | 0.00 | 99 | 1019.5 | |
| 20260501175514 | 72 | 3.0 | 10.0 | 0.00 | 0.00 | 0.00 | 99 | 1019.5 | |
| 20260501175008 | 72 | 4.0 | 11.0 | 0.00 | 0.00 | 0.00 | 99 | 1019.4 | |
| 20260501174502 | 72 | 3.0 | 9.0 | 0.00 | 0.00 | 0.00 | 99 | 1019.4 | |
| 20260501173956 | 72 | 4.0 | 11.0 | 0.00 | 0.00 | 0.00 | 99 | 1019.4 | |
| 20260501173459 | 72 | 3.0 | 8.0 | 0.00 | 0.00 | 0.00 | 99 | 1019.5 | |
| 20260501172944 | 72 | 3.0 | 9.0 | 0.00 | 0.00 | 0.00 | 99 | 1019.5 | |
| 20260501172438 | 72 | 3.0 | 10.0 | 0.00 | 0.00 | 0.00 | 99 | 1019.5 | |
| 20260501171932 | 73 | 4.0 | 13.0 | 0.00 | 0.00 | 0.00 | 99 | 1019.5 | |
| 20260501171426 | 73 | 5.0 | 15.0 | 0.00 | 0.00 | 0.00 | 99 | 1019.5 | |
| 20260501170920 | 73 | 6.0 | 17.0 | 0.00 | 0.00 | 0.00 | 99 | 1019.4 | |
| 20260501170422 | 73 | 4.0 | 12.0 | 0.00 | 0.00 | 0.00 | 99 | 1019.4 | |
| 20260501165908 | 74 | 5.0 | 15.0 | 0.00 | 0.00 | 0.00 | 99 | 1019.5 | |
| 20260501165401 | 74 | 4.0 | 13.0 | 0.00 | 0.00 | 0.00 | 99 | 1019.5 | |
| 20260501164855 | 74 | 4.0 | 11.0 | 0.00 | 0.00 | 0.00 | 99 | 1019.6 | |
| 20260501164349 | 74 | 5.0 | 14.0 | 0.00 | 0.00 | 0.00 | 99 | 1019.6 | |
| 20260501163843 | 74 | 4.0 | 12.0 | 0.00 | 0.00 | 0.00 | 99 | 1019.6 | |
| 20260501163345 | 75 | 5.0 | 14.0 | 0.00 | 0.00 | 0.00 | 99 | 1019.5 | |
| 20260501162830 | 74 | 5.0 | 14.0 | 0.00 | 0.00 | 0.00 | 99 | 1019.5 | |
| 20260501162325 | 74 | 4.0 | 13.0 | 0.00 | 0.00 | 0.00 | 99 | 1019.6 | |
| 20260501161819 | 74 | 5.0 | 14.0 | 0.00 | 0.00 | 0.00 | 99 | 1019.5 | |
| 20260501161313 | 74 | 5.0 | 16.0 | 0.00 | 0.00 | 0.00 | 99 | 1019.7 | |
| 20260501160808 | 74 | 4.0 | 13.0 | 0.00 | 0.00 | 0.00 | 99 | 1019.7 | |
| 20260501160309 | 74 | 5.0 | 15.0 | 0.00 | 0.00 | 0.00 | 99 | 1019.7 | |
| 20260501155753 | 75 | 5.0 | 14.0 | 0.00 | 0.00 | 0.00 | 99 | 1019.8 |